AirNav   Jet Aviation Boston
 
 865 users online  

9OI9 Riverside Methodist Hospital Heliport
Columbus, Ohio, USA

GOING TO COLUMBUS?


FAA INFORMATION EFFECTIVE 29 MARCH 2018

Location

FAA Identifier: 9OI9
Lat/Long: 40-01-52.7000N / 083-02-10.1000W
40-01.878333N / 083-02.168333W
40.0313056 / -83.0361389
(estimated)
Elevation: 766 ft. / 233 m (estimated)
Variation: 06W (2015)
From city: 5 miles NW of COLUMBUS, OH
Time zone: UTC -4 (UTC -5 during Standard Time)
Zip code: 43214

Heliport Operations

Heliport use: Private use, MEDICAL USE.
Activation date: 12/1983
Control tower: no
ARTCC: INDIANAPOLIS CENTER
FSS: DAYTON FLIGHT SERVICE STATION
NOTAMs facility: FDC (NOTAM-D service not available)
Attendance: CONTINUOUS
Wind indicator: yes
Segmented circle: no

Heliport Communications

HOSIG DP: 125.95
WX ASOS at OSU (3 nm NW): PHONE 614-451-2465
WX ASOS at CMH (7 nm E): 124.6 (614-338-4083)
WX AWOS-3 at TZR (9 nm SW): 135.925 (614-878-1722)
WX AWOS-3 at LCK (14 nm S): 132.750 (614-492-2441)
WX AWOS-3 at DLZ (15 nm N): 119.025 (740-203-1878)
WX AWOS-3 at MRT (19 nm NW): 119.275 (937-644-2967)

Nearby radio navigation aids

VOR radial/distance  VOR name  Freq  Var
APEr257/21.8APPLETON VORTAC116.7006W
XUBr360/(30.4)YELLOW BUD VOR112.5005W
BUDr183/(35.1)BUCKEYE VOR109.8005W
SGHr077/39.0SPRINGFIELD VOR/DME113.2004W

 
NDB name  Hdg/Dist  Freq  Var  ID
FULER114/7.951505WOS --- ...
PICKL321/12.937607WLC .-.. -.-.
BOUTN036/14.923005WBU -... ..-
NEWARK277/26.352406WHEH .... . ....
COURT HOUSE038/30.641406WCSS -.-. ... ...
CLARK COUNTY079/35.534104WCCJ -.-. -.-. .---

Heliport Services

Runway Information

Helipad H1

Dimensions: 50 x 50 ft. / 15 x 15 m
Surface: asphalt
Latitude: 40-01.878333N
Longitude: 083-02.168333W
Elevation: 766.0 ft.
Traffic pattern: leftleft

Heliport Ownership and Management from official FAA records

Ownership: Privately-owned
Owner: RIVERSIDE METHODIST HOSPITAL
3535 OLENTANGY RIVER ROAD
COLUMBUS, OH 43214
Phone 614-566-4400
Manager: BRIAN SAUL
3535 OLENTANGY RIVER ROAD
COLUMBUS, OH 43214
Phone 614-566-4400
FOR EMGCY DEPT SVC CALL 614-566-5321. FOR PROTECTIVE SVC CALL 614-566-4400/8000.

Additional Remarks

A1010-1 LIQUID 02 STORAGE TANK ADJ TO & NNE OF HELI.
LIQUID OXYGEN TANK NE OF PAD.

Instrument Procedures

There are no published instrument procedures at 9OI9.

Some nearby airports with instrument procedures:

KOSU - Ohio State University Airport (3 nm NW)
KCMH - John Glenn Columbus International Airport (7 nm E)
KTZR - Bolton Field Airport (9 nm SW)
KLCK - Rickenbacker International Airport (14 nm S)
KDLZ - Delaware Municipal Airport - Jim Moore Field (15 nm N)
KMRT - Union County Airport (19 nm NW)
 
Loc | Ops | Rwys | IFR | FBO | Links
Com | Nav | Svcs | Stats | Notes

AirNav Hotels Sweepstakes
 
Area around 9OI9 (Riverside Methodist Hospital Heliport)
 
Road maps at: MapQuest Bing Google
 
Aerial photo
No photo
 
Sectional chart

 
Airport distance calculator
Flying to Riverside Methodist Hospital Heliport? Find the distance to fly.

From to 9OI9

Sunrise and sunset
Times for 21-Apr-2018
 Local
(UTC-4)
 Zulu
(UTC)
Morning civil twilight06:1810:18
Sunrise06:4610:46
Sunset20:1500:15
Evening civil twilight20:4400:44

Current date and time
Zulu (UTC)  22-Apr-2018 01:43:02
Local (UTC-4)  21-Apr-2018 21:43:02
 
METAR
KOSU 
4nm NW 
220053Z 01008KT 10SM SCT095 10/M04 A3035 RMK AO2 SLP281 T01001044
KCMH 
7nm E 
220051Z 04005KT 10SM FEW100 OVC180 12/M06 A3034 RMK AO2 SLP277 T01171056
KTZR 
10nm SW 
220115Z AUTO 01007KT 10SM CLR 10/M03 A3036 RMK AO2 T01001032
KLCK 
14nm SE 
220115Z AUTO 03008KT 10SM CLR 10/M04 A3034 RMK AO2 T00971041
KDLZ 
15nm N 
220117Z AUTO 01005KT 10SM SCT095 09/M05 A3037 RMK AO2
KMRT 
19nm NW 
220115Z AUTO 04006KT 10SM SCT090 10/M05 A3037 RMK AO2 T00951049
TAF
KCMH 
7nm E 
211730Z 2118/2218 08005KT P6SM OVC200 FM212000 04006KT P6SM BKN120 OVC200 FM220300 VRB03KT P6SM FEW120 BKN250 FM221200 06006KT P6SM SCT250
KLCK 
14nm SE 
211730Z 2118/2218 05005KT P6SM OVC200 FM212000 04006KT P6SM BKN120 OVC200 FM220300 VRB03KT P6SM FEW120 BKN250 FM221200 06006KT P6SM SCT250
NOTAMs
Click for the latest NOTAMs
NOTAMs are issued by the DoD/FAA and will open in a separate window not controlled by AirNav.

 

 
 

Would you like to see your business listed on this page?

 If your business provides an interesting product or service to pilots, flight crews, aircraft, or users of the Riverside Methodist Hospital Heliport, you should consider listing it here.  To start the listing process, click on the button below
 
Add a business
 

Other Pages about Riverside Methodist Hospital Heliport

Update a link
 
Copyright © AirNav, LLC. All rights reserved. Privacy Policy  Contact